Date String (YYYY-MM-DD hh:mm:ss) UTC,Instrument flags,Ambient pressure (hPa),Sample flow (lpm),Bypass flow (lpm),Sample temperature (°C),Ambient temperature (°C),ASC tube jacket temperature (°C),LED temperature (°C),Box temperature (°C),Sample RH (%),Span deviation,Mass concentration (μg/m³),Mass concentration (μg/m³),Mass concentration (μg/m³)
DateTimeUTC,F1_M11,P_M11,Q1_M11,Q2_M11,T1_M11,T2_M11,T3_M11,T4_M11,T5_M11,U1_M11,ZSPAN_M11,X0_M11,X2_M11,X1_M11
2022-02-19 09:00:00,,0829.9,5.00,0.00,22.4,22.0,00.0,31.3,24.2,08.7,0000.0,0002.20,0000.52,0000.33
2022-02-19 09:01:00,,0829.9,5.00,0.00,22.4,21.9,00.0,31.3,24.2,08.7,0000.0,0002.22,0000.53,0000.33
2022-02-19 09:02:00,,0829.9,5.00,0.00,22.4,21.9,00.0,31.3,24.2,08.7,0000.0,0002.20,0000.52,0000.32
2022-02-19 09:03:00,,0829.8,5.01,0.00,22.4,21.9,00.0,31.3,24.2,08.7,0000.0,0002.19,0000.52,0000.32
2022-02-19 09:04:00,,0829.8,5.01,0.00,22.4,21.9,00.0,31.3,24.2,08.8,0000.0,0002.07,0000.50,0000.31
2022-02-19 09:05:00,,0829.8,4.99,0.00,22.4,21.8,00.0,31.3,24.2,08.8,0000.0,0002.03,0000.48,0000.30
2022-02-19 09:06:00,,0829.8,4.99,0.00,22.4,21.8,00.0,31.3,24.2,08.8,0000.0,0002.07,0000.49,0000.30
2022-02-19 09:07:00,,0829.8,5.01,0.00,22.4,21.8,00.0,31.3,24.2,08.8,0000.0,0002.09,0000.50,0000.30
2022-02-19 09:08:00,,0829.7,5.01,0.00,22.4,21.8,00.0,31.3,24.2,08.8,0000.0,0000.98,0000.49,0000.30
2022-02-19 09:09:00,,0829.7,5.00,0.00,22.4,21.8,00.0,31.3,24.2,08.8,0000.0,0000.99,0000.47,0000.29
2022-02-19 09:10:00,,0829.7,4.99,0.00,22.4,21.8,00.0,31.3,24.2,08.8,0000.0,0000.90,0000.45,0000.30
2022-02-19 09:11:00,,0829.7,5.00,0.00,22.4,21.8,00.0,31.3,24.2,08.8,0000.0,0000.86,0000.43,0000.30
2022-02-19 09:12:00,,0829.7,5.01,0.00,22.4,21.7,00.0,31.3,24.2,08.8,0000.0,0000.83,0000.42,0000.30
2022-02-19 09:13:00,,0829.7,5.00,0.00,22.4,21.7,00.0,31.3,24.2,08.8,0000.0,0000.78,0000.40,0000.29
2022-02-19 09:14:00,,0829.7,4.99,0.00,22.4,21.7,00.0,31.3,24.1,08.8,0000.0,0000.80,0000.40,0000.29
2022-02-19 09:15:00,,0829.7,5.00,0.00,22.4,21.7,00.0,31.3,24.2,08.8,0000.0,0000.88,0000.43,0000.30
2022-02-19 09:16:00,,0829.7,5.01,0.00,22.4,21.7,00.0,31.3,24.2,08.8,0000.0,0000.88,0000.45,0000.33
2022-02-19 09:17:00,,0829.7,4.99,0.00,22.4,21.7,00.0,31.3,24.2,08.8,0000.0,0000.85,0000.45,0000.34
2022-02-19 09:18:00,,0829.6,5.00,0.00,22.4,21.7,00.0,31.3,24.1,08.8,0000.0,0000.83,0000.46,0000.35
2022-02-19 09:19:00,,0829.7,5.01,0.00,22.4,21.7,00.0,31.3,24.1,08.8,0000.0,0000.78,0000.46,0000.35
2022-02-19 09:20:00,,0829.6,5.01,0.00,22.3,21.7,00.0,31.3,24.1,08.8,0000.0,0000.67,0000.46,0000.36
2022-02-19 09:21:00,,0829.6,4.99,0.00,22.3,21.7,00.0,31.3,24.1,08.8,0000.0,0000.67,0000.45,0000.35
2022-02-19 09:22:00,,0829.6,4.99,0.00,22.3,21.7,00.0,31.3,24.1,08.8,0000.0,0000.67,0000.46,0000.36
2022-02-19 09:23:00,,0829.6,5.02,0.00,22.3,21.7,00.0,31.3,24.1,08.8,0000.0,0000.72,0000.48,0000.36
2022-02-19 09:24:00,,0829.6,5.00,0.00,22.3,21.7,00.0,31.3,24.1,08.8,0000.0,0000.77,0000.49,0000.37
2022-02-19 09:25:00,,0829.6,4.99,0.00,22.3,21.6,00.0,31.3,24.1,08.8,0000.0,0000.74,0000.48,0000.36
2022-02-19 09:26:00,,0829.6,5.00,0.00,22.3,21.6,00.0,31.3,24.1,08.8,0000.0,0000.72,0000.48,0000.36
2022-02-19 09:27:00,,0829.6,5.00,0.00,22.3,21.6,00.0,31.3,24.1,08.8,0000.0,0000.75,0000.47,0000.33
2022-02-19 09:28:00,,0829.6,5.01,0.00,22.3,21.6,00.0,31.3,24.1,08.8,0000.0,0000.75,0000.46,0000.32
2022-02-19 09:29:00,,0829.6,5.00,0.00,22.3,21.6,00.0,31.3,24.1,08.8,0000.0,0000.72,0000.44,0000.31
2022-02-19 09:30:00,,0829.6,4.99,0.00,22.3,21.6,00.0,31.3,24.0,08.9,0000.0,0000.74,0000.45,0000.31
2022-02-19 09:31:00,,0829.5,5.00,0.00,22.2,21.6,00.0,31.3,24.0,09.0,0000.0,0000.74,0000.46,0000.32
2022-02-19 09:32:00,,0829.5,5.01,0.00,22.2,21.5,00.0,31.3,24.0,08.9,0000.0,0000.71,0000.46,0000.33
2022-02-19 09:33:00,,0829.5,5.00,0.00,22.2,21.7,00.0,31.2,24.0,08.9,0000.0,0001.09,0000.45,0000.34
2022-02-19 09:34:00,,0829.5,5.00,0.00,22.3,22.3,00.0,31.3,24.2,08.8,0000.0,0001.55,0000.44,0000.34
2022-02-19 09:35:00,,0829.5,4.99,0.00,22.5,23.0,00.0,31.3,24.5,08.8,0000.0,0001.54,0000.46,0000.35
2022-02-19 09:36:00,,0829.5,5.01,0.00,22.6,23.0,00.0,31.4,24.6,08.8,0000.0,0001.59,0000.48,0000.37
2022-02-19 09:37:00,,0829.5,5.00,0.00,22.6,22.9,00.0,31.4,24.6,08.8,0000.0,0001.60,0000.50,0000.40
2022-02-19 09:38:00,,0829.5,5.00,0.00,22.6,22.7,00.0,31.4,24.6,08.8,0000.0,0001.60,0000.52,0000.41
2022-02-19 09:39:00,,0829.5,5.00,0.00,22.6,22.5,00.0,31.4,24.5,08.8,0000.0,0001.64,0000.54,0000.42
2022-02-19 09:40:00,,0829.5,4.99,0.00,22.6,22.4,00.0,31.4,24.5,08.7,0000.0,0001.71,0000.57,0000.44
2022-02-19 09:41:00,,0829.5,5.01,0.00,22.6,22.3,00.0,31.4,24.5,08.7,0000.0,0001.74,0000.59,0000.45
2022-02-19 09:42:00,,0829.5,5.00,0.00,22.6,22.2,00.0,31.4,24.5,08.7,0000.0,0001.77,0000.60,0000.45
2022-02-19 09:43:00,,0829.5,4.99,0.00,22.6,22.2,00.0,31.5,24.5,08.7,0000.0,0001.76,0000.60,0000.45
2022-02-19 09:44:00,,0829.5,5.01,0.00,22.6,22.1,00.0,31.5,24.4,08.7,0000.0,0001.48,0000.61,0000.46
2022-02-19 09:45:00,,0829.5,4.99,0.00,22.6,22.1,00.0,31.5,24.4,08.8,0000.0,0001.06,0000.66,0000.48
2022-02-19 09:46:00,,0829.5,5.00,0.00,22.6,22.0,00.0,31.5,24.3,08.8,0000.0,0001.22,0000.68,0000.48
2022-02-19 09:47:00,,0829.5,5.01,0.00,22.5,21.9,00.0,31.5,24.3,08.8,0000.0,0001.30,0000.69,0000.49
2022-02-19 09:48:00,,0829.5,5.00,0.00,22.5,21.8,00.0,31.5,24.2,08.8,0000.0,0001.35,0000.69,0000.48
2022-02-19 09:49:00,,0829.5,5.00,0.00,22.5,21.8,00.0,31.5,24.2,08.8,0000.0,0001.34,0000.68,0000.47
2022-02-19 09:50:00,,0829.5,4.99,0.00,22.5,21.8,00.0,31.5,24.2,08.8,0000.0,0001.30,0000.66,0000.47
2022-02-19 09:51:00,,0829.5,5.01,0.00,22.5,21.8,00.0,31.4,24.2,08.8,0000.0,0001.26,0000.65,0000.47
2022-02-19 09:52:00,,0829.4,4.99,0.00,22.5,21.8,00.0,31.4,24.3,08.8,0000.0,0001.25,0000.65,0000.48
2022-02-19 09:53:00,,0829.4,4.99,0.00,22.5,21.8,00.0,31.4,24.2,08.8,0000.0,0001.36,0000.68,0000.48
2022-02-19 09:54:00,,0829.4,5.01,0.00,22.4,21.8,00.0,31.4,24.2,08.8,0000.0,0001.57,0000.73,0000.49
2022-02-19 09:55:00,,0829.4,5.01,0.00,22.4,21.8,00.0,31.4,24.2,08.9,0000.0,0001.58,0000.73,0000.50
2022-02-19 09:56:00,,0829.4,5.00,0.00,22.4,21.8,00.0,31.4,24.2,08.9,0000.0,0001.52,0000.72,0000.50
2022-02-19 09:57:00,,0829.4,4.99,0.00,22.4,21.8,00.0,31.4,24.2,08.9,0000.0,0001.53,0000.73,0000.50
2022-02-19 09:58:00,,0829.4,5.01,0.00,22.4,21.7,00.0,31.4,24.2,08.9,0000.0,0001.57,0000.73,0000.50
2022-02-19 09:59:00,,0829.4,4.99,0.00,22.4,21.7,00.0,31.4,24.2,09.0,0000.0,0001.50,0000.72,0000.50
